TimeMST,TemperatureF,Dew PointF,Humidity,Sea Level PressureIn,VisibilityMPH,Wind Direction,Wind SpeedMPH,Gust SpeedMPH,PrecipitationIn,Events,Conditions,WindDirDegrees,DateUTC
12:15 AM,-6.9,-10.8,83,29.98,2.0,Calm,Calm,-,N/A,Snow,Light Snow,0,2014-02-06 07:15:00
12:35 AM,-9.6,-14.4,79,29.98,7.0,Calm,Calm,-,N/A,Snow,Light Snow,0,2014-02-06 07:35:00
12:55 AM,-7.8,-12.5,80,29.98,5.0,Calm,Calm,-,N/A,Snow,Light Snow,0,2014-02-06 07:55:00
1:15 AM,-9.4,-13.9,81,29.98,7.0,West,4.6,-,N/A,Snow,Light Snow,280,2014-02-06 08:15:00
1:35 AM,-10.3,-15.7,77,29.98,10.0,West,5.8,-,N/A,Snow,Light Snow,280,2014-02-06 08:35:00
1:55 AM,-8.5,-13.5,79,29.99,7.0,Calm,Calm,-,N/A,Snow,Light Snow,0,2014-02-06 08:55:00
2:15 AM,-7.6,-13.0,77,29.98,10.0,Calm,Calm,-,N/A,Snow,Light Snow,0,2014-02-06 09:15:00
2:35 AM,-8.5,-13.5,79,29.99,7.0,Calm,Calm,-,N/A,Snow,Light Snow,0,2014-02-06 09:35:00
2:55 AM,-9.4,-14.6,78,29.99,10.0,SSE,3.5,-,N/A,Snow,Light Snow,150,2014-02-06 09:55:00
3:15 AM,-8.9,-14.4,77,29.98,7.0,East,3.5,-,N/A,Snow,Light Snow,80,2014-02-06 10:15:00
3:35 AM,-13.2,-19.1,75,29.98,10.0,ENE,3.5,-,N/A,Snow,Light Snow,70,2014-02-06 10:35:00
3:55 AM,-14.1,-19.5,77,29.98,10.0,Calm,Calm,-,N/A,Snow,Light Snow,0,2014-02-06 10:55:00
4:15 AM,-16.1,-21.6,76,29.98,10.0,Calm,Calm,-,N/A,Snow,Light Snow,0,2014-02-06 11:15:00
4:35 AM,-12.8,-17.9,78,29.98,10.0,Calm,Calm,-,N/A,,Overcast,0,2014-02-06 11:35:00
4:55 AM,-10.5,-15.9,77,29.98,10.0,Calm,Calm,-,N/A,,Overcast,0,2014-02-06 11:55:00
5:15 AM,-11.2,-17.0,76,29.97,10.0,Calm,Calm,-,N/A,,Overcast,0,2014-02-06 12:15:00
5:35 AM,-10.3,-15.0,80,29.97,10.0,Calm,Calm,-,N/A,Snow,Light Snow,0,2014-02-06 12:35:00
5:55 AM,-9.2,-14.3,79,29.96,10.0,Calm,Calm,-,N/A,,Overcast,0,2014-02-06 12:55:00
6:15 AM,-8.3,-13.5,78,29.96,10.0,Calm,Calm,-,N/A,,Overcast,0,2014-02-06 13:15:00
6:35 AM,-8.0,-13.2,78,29.95,10.0,Calm,Calm,-,N/A,,Overcast,0,2014-02-06 13:35:00
6:55 AM,-7.6,-13.0,77,29.94,10.0,Calm,Calm,-,N/A,,Overcast,0,2014-02-06 13:55:00
7:15 AM,-7.1,-12.6,77,29.95,7.0,Calm,Calm,-,N/A,Snow,Light Snow,0,2014-02-06 14:15:00
7:35 AM,-7.1,-12.5,77,29.94,10.0,Calm,Calm,-,N/A,,Overcast,0,2014-02-06 14:35:00
7:55 AM,-6.9,-12.5,77,29.94,10.0,West,3.5,-,N/A,Snow,Light Snow,260,2014-02-06 14:55:00
8:15 AM,-6.7,-12.1,77,29.94,10.0,Calm,Calm,-,N/A,,Overcast,0,2014-02-06 15:15:00
8:35 AM,-6.0,-11.7,76,29.95,10.0,WNW,4.6,-,N/A,,Overcast,290,2014-02-06 15:35:00
8:55 AM,-5.8,-12.1,74,29.95,10.0,West,3.5,-,N/A,,Overcast,280,2014-02-06 15:55:00
9:15 AM,-4.9,-11.2,74,29.95,10.0,West,3.5,-,N/A,,Overcast,270,2014-02-06 16:15:00
9:35 AM,-4.4,-11.2,72,29.95,10.0,Calm,Calm,-,N/A,,Overcast,0,2014-02-06 16:35:00
9:55 AM,-3.1,-10.3,71,29.94,10.0,Calm,Calm,-,N/A,,Overcast,0,2014-02-06 16:55:00
10:15 AM,-1.5,-9.4,69,29.94,10.0,Calm,Calm,-,N/A,,Overcast,0,2014-02-06 17:15:00
10:35 AM,0.1,-8.5,67,29.94,10.0,Calm,Calm,-,N/A,,Overcast,0,2014-02-06 17:35:00
10:55 AM,0.7,-7.8,68,29.94,10.0,Calm,Calm,-,N/A,,Overcast,0,2014-02-06 17:55:00
11:15 AM,1.4,-7.2,67,29.94,10.0,Calm,Calm,-,N/A,,Overcast,0,2014-02-06 18:15:00
11:35 AM,3.0,-6.2,66,29.93,10.0,Calm,Calm,-,N/A,,Overcast,0,2014-02-06 18:35:00
11:55 AM,3.9,-5.4,65,29.92,10.0,West,4.6,-,N/A,,Overcast,280,2014-02-06 18:55:00
12:15 PM,5.0,-4.7,64,29.91,10.0,West,3.5,-,N/A,,Overcast,280,2014-02-06 19:15:00
12:35 PM,5.9,-3.5,65,29.90,10.0,West,3.5,-,N/A,,Overcast,270,2014-02-06 19:35:00
12:55 PM,6.3,-3.5,64,29.89,10.0,Calm,Calm,-,N/A,,Overcast,0,2014-02-06 19:55:00
1:15 PM,8.2,-1.8,64,29.88,10.0,Calm,Calm,-,N/A,,Overcast,0,2014-02-06 20:15:00
1:35 PM,8.6,-1.1,65,29.87,10.0,Calm,Calm,-,N/A,,Overcast,0,2014-02-06 20:35:00
1:55 PM,9.7,0.5,66,29.87,10.0,Calm,Calm,-,N/A,,Overcast,0,2014-02-06 20:55:00
2:15 PM,10.9,1.4,65,29.87,10.0,Calm,Calm,-,N/A,,Overcast,0,2014-02-06 21:15:00
2:35 PM,11.3,1.8,66,29.86,10.0,Calm,Calm,-,N/A,,Overcast,0,2014-02-06 21:35:00
2:55 PM,12.6,2.3,64,29.86,10.0,Calm,Calm,-,N/A,,Overcast,0,2014-02-06 21:55:00
3:15 PM,13.1,3.7,66,29.86,10.0,Calm,Calm,-,N/A,,Overcast,0,2014-02-06 22:15:00
3:35 PM,12.7,4.1,68,29.85,10.0,Calm,Calm,-,N/A,,Overcast,0,2014-02-06 22:35:00
3:55 PM,13.1,4.6,69,29.85,10.0,Calm,Calm,-,N/A,,Overcast,0,2014-02-06 22:55:00
4:15 PM,13.8,5.0,68,29.85,10.0,Calm,Calm,-,N/A,,Overcast,0,2014-02-06 23:15:00
4:35 PM,13.6,5.4,70,29.84,10.0,Calm,Calm,-,N/A,,Overcast,0,2014-02-06 23:35:00
4:55 PM,13.6,5.9,71,29.85,10.0,Calm,Calm,-,N/A,,Overcast,0,2014-02-06 23:55:00
5:15 PM,14.0,6.8,73,29.84,10.0,Calm,Calm,-,N/A,,Overcast,0,2014-02-07 00:15:00
5:35 PM,13.8,6.1,71,29.84,10.0,Calm,Calm,-,N/A,,Overcast,0,2014-02-07 00:35:00
5:55 PM,13.6,6.8,74,29.84,10.0,Calm,Calm,-,N/A,,Overcast,0,2014-02-07 00:55:00
6:15 PM,14.4,7.7,75,29.84,10.0,Calm,Calm,-,N/A,,Overcast,0,2014-02-07 01:15:00
6:35 PM,15.3,9.1,77,29.84,10.0,Calm,Calm,-,N/A,,Overcast,0,2014-02-07 01:35:00
6:55 PM,19.0,12.2,75,29.84,10.0,Calm,Calm,-,N/A,,Overcast,0,2014-02-07 01:55:00
7:15 PM,21.4,13.6,72,29.83,10.0,NE,3.5,-,N/A,,Overcast,40,2014-02-07 02:15:00
7:35 PM,20.1,12.9,74,29.83,10.0,Calm,Calm,-,N/A,,Overcast,0,2014-02-07 02:35:00
7:55 PM,18.1,11.5,75,29.82,10.0,SSW,3.5,-,N/A,,Overcast,200,2014-02-07 02:55:00
8:15 PM,18.3,12.2,77,29.82,10.0,Calm,Calm,-,N/A,,Overcast,0,2014-02-07 03:15:00
8:35 PM,17.8,12.7,81,29.82,10.0,WNW,4.6,-,N/A,,Overcast,300,2014-02-07 03:35:00
8:55 PM,17.2,11.1,77,29.83,10.0,West,5.8,-,N/A,,Overcast,270,2014-02-07 03:55:00
9:15 PM,17.1,10.4,75,29.83,10.0,Calm,Calm,-,N/A,,Overcast,0,2014-02-07 04:15:00
9:35 PM,17.4,12.0,79,29.83,2.5,Calm,Calm,-,N/A,Snow,Light Snow,0,2014-02-07 04:35:00
9:55 PM,18.5,13.5,81,29.83,7.0,Calm,Calm,-,N/A,Snow,Light Snow,0,2014-02-07 04:55:00
10:15 PM,23.2,18.9,84,29.82,7.0,South,11.5,17.3,N/A,Snow,Light Snow,190,2014-02-07 05:15:00
10:35 PM,24.3,20.3,85,29.82,5.0,SSW,15.0,20.7,N/A,Snow,Light Snow,200,2014-02-07 05:35:00
10:55 PM,24.8,19.4,80,29.81,7.0,SSW,13.8,-,N/A,Snow,Light Snow,210,2014-02-07 05:55:00
11:15 PM,24.8,18.3,76,29.81,10.0,SSW,12.7,-,N/A,,Overcast,210,2014-02-07 06:15:00
11:35 PM,24.8,18.1,76,29.81,10.0,SSW,12.7,19.6,N/A,,Overcast,210,2014-02-07 06:35:00
11:55 PM,24.6,18.9,79,29.81,10.0,SSW,12.7,-,N/A,Snow,Light Snow,210,2014-02-07 06:55:00